Regional Weather Roundup
Issued by NWS

Home | Current Version | Previous Version | Graphics & Text | Print | Product List | Glossary On
Versions: 1 2 3 4 5 6 7 8 9 10 11 12 13 14 15 16 17 18 19 20 21 22 23 24 25 26 27 28 29 30 31 32 33 34 35 36 37 38 39 40 41 42 43 44 45 46 47 48 49 50
000
ASUS43 KLSX 290007
RWRMO

WEATHER SUMMARY FOR MISSOURI
NATIONAL WEATHER SERVICE SPRINGFIELD MO
700 PM CDT SUN AUG 28 2016

NOTE: "FAIR" INDICATES FEW OR NO CLOUDS BELOW 12,000 FEET WITH NO
       SIGNIFICANT WEATHER AND/OR OBSTRUCTIONS TO VISIBILITY.
       CURRENT SKY AND/OR WEATHER CONDITIONS ARE NOT AVAILABLE FOR
       CHILLICOTHE AND FARMINGTON.

MOZ001>031-035>038-043-044-053-054-290100-
...NORTHERN AND WESTERN MISSOURI...

CITY           SKY/WX    TMP DP  RH WIND       PRES   REMARKS
KANSAS CTY INT PTCLDY    86  69  56 E7        30.07S HX  90
6HR MIN TEMP:  86; 6HR MAX TEMP:  90;

KANSAS C DTWN  PTCLDY    87  70  56 E5        30.05S HX  92
6HR MIN TEMP:  87; 6HR MAX TEMP:  92;

LEE`S SUMMIT   PTCLDY    85  72  65 E5        30.08R HX  91
6HR MIN TEMP:  85; 6HR MAX TEMP:  89;

ST JOSEPH      PTCLDY    78  71  79 N8        30.07F
6HR MIN TEMP:  77; 6HR MAX TEMP:  88;

KIRKSVILLE     PTCLDY    79  69  71 E5        30.12R
6HR MIN TEMP:  79; 6HR MAX TEMP:  89;


$$
MOZ066>068-077>081-088>096-101>105-290100-
...SOUTHWEST MISSOURI...

CITY           SKY/WX    TMP DP  RH WIND       PRES   REMARKS
SPRINGFIELD    CLEAR     87  67  51 SE8       30.07S HX  90
6HR MIN TEMP:  86; 6HR MAX TEMP:  91;

JOPLIN         CLEAR     87  68  52 CALM      30.05S HX  90
6HR MIN TEMP:  86; 6HR MAX TEMP:  90;

BRANSON        MOCLDY    84  72  65 SE6       30.09S

$$
MOZ032>034-039>042-045>050-055>058-069>072-290100-
...CENTRAL MISSOURI...

CITY           SKY/WX    TMP DP  RH WIND       PRES   REMARKS
COLUMBIA       CLEAR     85  73  67 SE5       30.08S HX  91
6HR MIN TEMP:  85; 6HR MAX TEMP:  90;

JEFFERSON CITY CLEAR     86  72  62 E5        30.06R HX  92
6HR MIN TEMP:  86; 6HR MAX TEMP:  90;

ROLLA          CLEAR     84  72  67 E5        30.09S
6HR MIN TEMP:  84; 6HR MAX TEMP:  89;

SEDALIA        CLEAR     86  73  65 CALM      30.09R HX  93
6HR MIN TEMP:  84; 6HR MAX TEMP:  92;

WHITEMAN AFB   PTCLDY    83  72  69 NE3       30.07R
OSAGE BEACH    CLEAR     85  73  67 SE3       30.08S HX  91

$$
MOZ051-052-059>065-290100-
...EAST CENTRAL MISSOURI...

CITY           SKY/WX    TMP DP  RH WIND       PRES   REMARKS
ST LOUIS INTL  PTCLDY    91  69  48 E10       30.08S HX  96
6HR MIN TEMP:  91; 6HR MAX TEMP:  96;

SPIRIT OF STL  PTCLDY    86  76  71 CALM      30.06S HX  96
6HR MIN TEMP:  86; 6HR MAX TEMP:  92;

ST CHARLES     PTCLDY    83  78  85 N5        30.06S HX  93
6HR MIN TEMP:  83; 6HR MAX TEMP:  92;


$$
MOZ072>076-082>087-097>100-106>115-290100-
...SOUTH CENTRAL AND SOUTHEAST MISSOURI...

CITY           SKY/WX    TMP DP  RH WIND       PRES   REMARKS
CAPE GIRARDEAU CLEAR     88  74  63 E6        30.06R HX  96
6HR MIN TEMP:  88; 6HR MAX TEMP:  93;

FARMINGTON     CLEAR     86  75  69 E3        30.10R HX  95
6HR MIN TEMP:  86; 6HR MAX TEMP:  91;

POPLAR BLUFF   CLEAR     86  77  74 E3        30.04S HX  97
6HR MIN TEMP:  86; 6HR MAX TEMP:  92;

WEST PLAINS    CLEAR     84  70  62 E3        30.11R
6HR MIN TEMP:  84; 6HR MAX TEMP:  90;


$$



USA.gov is the U.S. government's official web portal to all federal, state and local government web resources and services.